Oxford, NC

4:46 PM EDT on September 23, 2019 (GMT -0400)
Henderson-Oxford

Weather History for KHNZ - July, 2019

Change the Weather History Date:

Saturday, July 27, 2019

  Actual Average (WUND) Record (WUND)
Temperature  
Mean Temperature 72 °F -  
Max Temperature 84 °F - - (-1)
Min Temperature 60 °F - - (-1)
Cooling Degree Days 7    
Growing Degree Days 22 (Base 50)    
Moisture  
Dew Point 61 °F    
Average Humidity 69    
Maximum Humidity 98    
Minimum Humidity 38    
Precipitation  
Precipitation 0.00 in - - ()
Sea Level Pressure  
Sea Level Pressure 30.27 in    
Wind  
Wind Speed 0 mph (North)    
Max Wind Speed 0 mph    
Max Gust Speed -    
Visibility 10 miles    
Events      
Averages and records for this station are not official NWS values.
T = Trace of Precipitation, MM = Missing Value Source: NWS Daily Summary

Daily Weather History Graph

Daily Weather History Graph

Search for Another Location

Airport or City:

Astronomy

Jul. 27, 2019 Rise Set
Actual Time 6:16 AM EDT 8:24 PM EDT
Civil Twilight 5:47 AM EDT 8:53 PM EDT
Nautical Twilight 5:12 AM EDT 9:28 PM EDT
Astronomical Twilight 4:34 AM EDT 10:06 PM EDT
Moon 1:59 AM EDT (7/27) 4:13 PM EDT (7/27)
Length of Visible Light 15h 05m
Length of Day
14h 07m
Waning Crescent, 24% of the Moon is Illuminated
Jul 27
Waning Crescent
Jul 31
New
Aug 7
First Quarter
Aug 15
Full
Aug 23
Last Quarter

Hourly Weather History & Observations

Time (EDT) Temp. Heat Index Dew Point Humidity Pressure Visibility Wind Dir Wind Speed Gust Speed Precip Events Conditions
12:15 AM 68.4 °F - 60.8 °F 77% 30.29 in 10.0 mi Calm Calm - N/A   Clear
12:35 AM 67.6 °F - 61.0 °F 79% 30.29 in 10.0 mi Calm Calm - N/A   Clear
12:55 AM 67.6 °F - 61.2 °F 80% 30.29 in 10.0 mi Calm Calm - N/A   Clear
1:15 AM 66.9 °F - 61.2 °F 82% 30.29 in 10.0 mi Calm Calm - N/A   Clear
1:35 AM 65.8 °F - 61.0 °F 84% 30.28 in 10.0 mi Calm Calm - N/A   Clear
1:55 AM 64.9 °F - 61.3 °F 88% 30.28 in 10.0 mi Calm Calm - N/A   Clear
2:15 AM 64.9 °F - 61.2 °F 88% 30.28 in 10.0 mi Calm Calm - N/A   Clear
2:35 AM 63.0 °F - 61.0 °F 93% 30.28 in 10.0 mi Calm Calm - N/A   Clear
2:55 AM 62.6 °F - 61.2 °F 95% 30.27 in 10.0 mi Calm Calm - N/A   Clear
3:15 AM 62.6 °F - 61.0 °F 94% 30.27 in 10.0 mi Calm Calm - N/A   Clear
3:35 AM 61.9 °F - 60.8 °F 96% 30.27 in 10.0 mi Calm Calm - N/A   Clear
3:55 AM 62.6 °F - 61.0 °F 94% 30.27 in 10.0 mi Calm Calm - N/A   Clear
4:15 AM 62.2 °F - 61.2 °F 96% 30.27 in 10.0 mi Calm Calm - N/A   Clear
4:35 AM 62.4 °F - 61.2 °F 96% 30.27 in 10.0 mi Calm Calm - N/A   Clear
4:55 AM 62.1 °F - 61.0 °F 96% 30.27 in 10.0 mi Calm Calm - N/A   Clear
5:15 AM 61.9 °F - 61.0 °F 97% 30.28 in 7.0 mi Calm Calm - N/A   Clear
5:35 AM 61.7 °F - 60.6 °F 96% 30.28 in 10.0 mi Calm Calm - N/A   Clear
5:55 AM 61.7 °F - 60.8 °F 97% 30.29 in 10.0 mi Calm Calm - N/A   Clear
6:15 AM 61.5 °F - 60.6 °F 97% 30.29 in 7.0 mi Calm Calm - N/A   Clear
6:35 AM 60.6 °F - 59.7 °F 97% 30.30 in 7.0 mi Calm Calm - N/A   Clear
6:55 AM 61.0 °F - 60.1 °F 97% 30.30 in 5.0 mi Calm Calm - N/A   Clear
7:15 AM 62.1 °F - 61.5 °F 98% 30.31 in 7.0 mi Calm Calm - N/A   Clear
7:35 AM 63.7 °F - 62.6 °F 96% 30.31 in 10.0 mi Calm Calm - N/A   Clear
7:55 AM 65.3 °F - 62.8 °F 92% 30.32 in 10.0 mi Calm Calm - N/A   Clear
8:15 AM 66.9 °F - 62.4 °F 85% 30.32 in 10.0 mi Calm Calm - N/A   Clear
8:35 AM 68.5 °F - 62.4 °F 81% 30.33 in 10.0 mi Calm Calm - N/A   Clear
8:55 AM 70.2 °F - 63.0 °F 78% 30.32 in 10.0 mi Calm Calm - N/A   Clear
9:15 AM 72.1 °F - 63.3 °F 74% 30.33 in 10.0 mi Calm Calm - N/A   Clear
9:35 AM 73.8 °F - 63.0 °F 69% 30.32 in 10.0 mi Calm Calm - N/A   Clear
9:55 AM 75.4 °F - 62.8 °F 65% 30.32 in 10.0 mi Calm Calm - N/A   Clear
10:15 AM 76.6 °F - 63.0 °F 62% 30.32 in 10.0 mi Calm Calm - N/A   Clear
10:35 AM 77.2 °F - 62.4 °F 60% 30.32 in 10.0 mi Calm Calm - N/A   Clear
10:55 AM 78.4 °F - 61.9 °F 57% 30.32 in 10.0 mi Calm Calm - N/A   Clear
11:35 AM 79.5 °F - 61.5 °F 54% 30.31 in 10.0 mi Calm Calm - N/A   Clear
11:55 AM 79.5 °F - 61.0 °F 53% 30.30 in 10.0 mi Calm Calm - N/A   Clear
12:15 PM 80.2 °F 81.1 °F 60.6 °F 51% 30.29 in 10.0 mi Calm Calm - N/A   Clear
12:35 PM 80.8 °F 81.5 °F 60.4 °F 50% 30.29 in 10.0 mi Calm Calm - N/A   Scattered Clouds
12:55 PM 81.9 °F 82.8 °F 62.1 °F 51% 30.29 in 10.0 mi Calm Calm - N/A   Scattered Clouds
1:15 PM 82.0 °F 82.8 °F 61.9 °F 50% 30.29 in 10.0 mi Calm Calm - N/A   Scattered Clouds
1:35 PM 82.9 °F 84.0 °F 63.3 °F 51% 30.28 in 10.0 mi Calm Calm - N/A   Scattered Clouds
1:55 PM 82.9 °F 83.5 °F 61.5 °F 48% 30.28 in 10.0 mi Calm Calm - N/A   Clear
2:15 PM 83.1 °F 83.7 °F 61.5 °F 48% 30.27 in 10.0 mi Calm Calm - N/A   Clear
2:35 PM 83.1 °F 83.3 °F 60.6 °F 46% 30.26 in 10.0 mi Calm Calm - N/A   Clear
2:55 PM 82.9 °F 83.0 °F 59.4 °F 45% 30.26 in 10.0 mi Calm Calm - N/A   Clear
3:15 PM 83.5 °F 82.9 °F 57.7 °F 41% 30.25 in 10.0 mi Calm Calm - N/A   Clear
3:35 PM 84.2 °F 83.7 °F 58.1 °F 41% 30.25 in 10.0 mi Calm Calm - N/A   Clear
3:55 PM 83.8 °F 82.8 °F 55.8 °F 38% 30.24 in 10.0 mi Calm Calm - N/A   Clear
4:15 PM 84.4 °F 83.4 °F 56.3 °F 38% 30.24 in 10.0 mi Calm Calm - N/A   Clear
4:35 PM 83.7 °F 82.7 °F 55.2 °F 38% 30.24 in 10.0 mi Calm Calm - N/A   Clear
4:55 PM 84.0 °F 83.2 °F 56.3 °F 39% 30.23 in 10.0 mi Calm Calm - N/A   Clear
5:15 PM 84.2 °F 83.2 °F 55.9 °F 38% 30.23 in 10.0 mi Calm Calm - N/A   Clear
5:35 PM 83.8 °F 82.8 °F 55.8 °F 38% 30.23 in 10.0 mi Calm Calm - N/A   Clear
5:55 PM 83.5 °F 82.8 °F 56.5 °F 40% 30.22 in 10.0 mi Calm Calm - N/A   Clear
6:15 PM 82.9 °F 82.1 °F 55.6 °F 39% 30.22 in 10.0 mi Calm Calm - N/A   Clear
6:35 PM 82.6 °F 82.2 °F 57.4 °F 42% 30.21 in 10.0 mi Calm Calm - N/A   Clear
6:55 PM 81.3 °F 82.1 °F 61.0 °F 50% 30.21 in 10.0 mi Calm Calm - N/A   Clear
7:15 PM 80.8 °F 81.4 °F 60.3 °F 49% 30.21 in 10.0 mi Calm Calm - N/A   Clear
7:35 PM 79.7 °F - 61.0 °F 53% 30.21 in 10.0 mi Calm Calm - N/A   Clear
7:55 PM 78.3 °F - 60.8 °F 55% 30.22 in 10.0 mi Calm Calm - N/A   Clear
8:15 PM 76.5 °F - 63.1 °F 63% 30.22 in 10.0 mi Calm Calm - N/A   Clear
8:35 PM 73.9 °F - 64.0 °F 71% 30.22 in 10.0 mi Calm Calm - N/A   Clear
8:55 PM 74.3 °F - 62.2 °F 66% 30.22 in 10.0 mi Calm Calm - N/A   Clear
9:15 PM 73.0 °F - 62.8 °F 70% 30.22 in 10.0 mi Calm Calm - N/A   Clear
9:35 PM 72.7 °F - 62.8 °F 71% 30.23 in 10.0 mi Calm Calm - N/A   Clear
9:55 PM 70.3 °F - 62.4 °F 76% 30.23 in 10.0 mi Calm Calm - N/A   Clear
10:15 PM 68.4 °F - 62.8 °F 82% 30.24 in 10.0 mi Calm Calm - N/A   Clear
10:35 PM 67.1 °F - 63.1 °F 87% 30.24 in 10.0 mi Calm Calm - N/A   Clear
10:55 PM 67.3 °F - 63.7 °F 88% 30.24 in 10.0 mi Calm Calm - N/A   Clear
11:15 PM 67.1 °F - 63.7 °F 89% 30.24 in 10.0 mi Calm Calm - N/A   Clear